Location: Demre
(36.2444°N, 29.9850°E)
Time: 04:51:27
(UTC+00:00)

NOSS 2-3 (D) - Pass Details

Date: 11 March 2026
Orbit: 497 x 1701 km, 63.3° (Epoch: 24 April)

Event Time Altitude Azimuth Distance (km) Brightness Sun altitude
Rises 17:08:39 0° 195° (SSW) 2,804 7.1 -13.9°
Reaches altitude 10° 17:11:04 10° 188° (S) 1,809 6.0 -14.4°
Maximum altitude 17:14:45 40° 118° (ESE) 751 3.5 -15.1°
Enters shadow 17:16:18 26° 66° (ENE) 1,008 4.2 -15.4°
